Aérodrome :
LOGIN :

S'inscrire | Disclaimer

   EN    FR    IT 

 










Légende :    VFR   VFR Marginal   IFR   IFR Intensif   IFR Très Intensif
Visi : 
Plafond : 
>= 8 km
>= 3000ft
5 à 8 km
1000 à 3000 ft
1500m à 5 km
500 à 1000 ft
800 à 1500m
200 à 500 ft
< 800m
< 200 ft
Symboles :   Orages  Brouillard  Fortes neiges  Fortes précipitations  Vent > 20 kt
SIGMETs :   Divers  Orages  Givrage  Turbulence  Onde Orograph.  Cendres Volcan.






- Altitude de l'aérodrome : 2077 ft
- Code IATA : FMM


EDJA - Memmingen

DERNIER METAR :
  • 230150Z AUTO VRB01KT 9999 // NCD M01/M03 Q1024

METARs EXPIRÉS :
  • 230120Z AUTO 14002KT 9999 // NCD M02/M03 Q1023
  • 230050Z AUTO VRB01KT 9999 // NCD M00/M03 Q1023
  • 230020Z AUTO 00000KT 9999 // NCD M00/M02 Q1023
  • 222350Z AUTO VRB01KT 9999 // NCD 00/M02 Q1023

TAF TAF EDJA
Valide du 22 à 18h jusqu'au 23 à 03h UTC


221700Z 2218/2303 36007KT CAVOK
BECMG 2219/2221 06004KT



MET'MAP, la Météo Aéronautique d'un coup d'oeil ! - Copyright ORBIFLY Décembre 2007 - Disclaimer

ORBIFLY MET'MAP TEAM :

Programmation & Développement : Alexandra Zaïnal
Sur une idée originale de : Baudouin d'Aumeries
Assistance à la programmation : Marc-Olivier Méhu
Soutien technique & logistique : Manuel Goepfert

Contact : metmap@orbifly.com




SOURCES & CREDITS :

   NOAA